[[{"header":{"parameterUnit":"m.s-1","parameterCategory":1,"la1":30.2991,"la2":30.254,"lo1":-89.0895,"lo2":-89.0444,"dy":0.0017,"dx":0.0017,"nx":28,"ny":28,"refTime":"2024-03-07T03:00:00:Z","depth":0,"parameterNumber":2,"parameterNumberName":"U-component_of_WINDS"},"data":[0,0,0,0,0,0,0,0,0,0,0,0,0,0,0,0,0,0,0,0,0,0,0,0,0,0,0,0,0,0,0,0,0,0,0,0,0,0,0,0,0,0,0,0,0,0,0,0,0,0,0,0,0,0,0,0,0,0,-3.12,-3.1199,0,-3.1159,-3.1159,-3.1158,-3.1105,-3.1104,-3.1104,-3.1103,-3.1062,-3.1062,-3.1062,0,0,0,0,0,0,0,0,0,0,0,0,0,-3.1235,-3.1234,-3.12,-3.1199,-3.1199,-3.1159,-3.1159,-3.1158,-3.1105,-3.1104,-3.1103,-3.1102,-3.1062,-3.1062,-3.1062,0,0,0,0,0,0,0,0,0,0,0,0,0,-3.1209,-3.1234,-3.12,-3.1168,-3.1164,-3.1159,-3.1159,-3.1158,-3.1106,-3.1104,-3.1103,-3.1102,-3.1063,-3.1062,-3.1062,-3.1085,0,0,-3.1061,-3.106,0,0,0,0,0,0,0,0,-3.1211,-3.1208,-3.1173,-3.117,-3.1166,-3.1136,-3.1156,-3.1134,-3.1106,-3.1128,-3.1103,-3.1101,-3.1088,-3.1085,-3.1081,-3.1083,-3.1082,-3.1061,-3.106,-3.106,-3.106,0,0,0,0,0,0,0,-3.1213,-3.121,-3.1184,-3.1173,-3.1168,-3.1156,-3.1151,-3.1151,-3.1116,-3.1126,-3.1122,-3.1118,-3.1086,-3.1081,-3.1079,-3.1081,-3.1061,-3.106,-3.106,-3.106,-3.1102,-3.1104,0,0,0,0,0,0,-3.1219,-3.1211,-3.1185,-3.1182,-3.1186,-3.1157,-3.1151,-3.1147,-3.1116,-3.111,-3.1119,-3.1116,-3.1082,-3.108,-3.1078,-3.1104,-3.106,-3.106,-3.1059,-3.1101,-3.1103,-3.1104,0,0,0,0,0,0,-3.122,-3.1217,-3.1187,-3.1196,-3.1191,-3.1157,-3.1153,-3.1147,-3.1142,-3.111,-3.1104,-3.1121,-3.1081,-3.1078,-3.1084,-3.1101,-3.106,-3.1059,-3.1099,-3.1101,-3.1103,-3.1155,0,0,0,0,0,0,-3.1221,-3.1218,-3.1226,-3.1196,-3.1191,-3.1193,-3.1154,-3.1147,-3.1141,-3.1136,-3.111,-3.1105,-3.108,-3.1085,-3.1084,-3.11,-3.1059,-3.1098,-3.11,-3.1103,-3.1152,-3.1159,-3.1165,0,0,0,0,0,-3.1223,-3.1242,-3.1226,-3.1223,-3.12,-3.1194,-3.1191,-3.1162,-3.1143,-3.1151,-3.1131,-3.1105,-3.11,-3.1086,-3.1084,-3.1101,-3.1096,-3.11,-3.1103,-3.1149,-3.1158,-3.1165,0,0,0,0,0,0,-3.1274,-3.1237,-3.122,-3.123,-3.1216,-3.1185,-3.1194,-3.1172,-3.1163,-3.1158,-3.1124,-3.1118,-3.1128,-3.1115,-3.11,-3.1122,-3.1094,-3.1097,-3.113,-3.1138,-3.1145,-3.1147,-3.1059,0,0,0,0,0,-3.1286,-3.1284,-3.1253,-3.1265,-3.1259,-3.1228,-3.1224,-3.1203,-3.1187,-3.1181,-3.1161,-3.1147,-3.1142,-3.114,-3.1133,-3.115,-3.1144,-3.1161,-3.1167,-3.1173,-3.1176,-3.1185,-3.1192,-3.1114,-3.1114,-3.1114,0,0,-3.1312,-3.1292,-3.1293,-3.1275,-3.1261,-3.126,-3.1223,-3.1223,-3.1223,-3.1181,-3.1185,-3.1171,-3.1153,-3.1164,-3.1168,-3.1153,-3.1196,-3.1177,-3.1182,-3.1181,-3.1189,-3.1196,-3.1203,-3.1116,-3.1116,-3.1116,0,0,-3.1359,-3.1343,-3.1352,-3.1339,-3.1319,-3.1299,-3.1301,-3.1275,-3.1263,-3.1267,-3.1236,-3.1235,-3.1227,-3.1216,-3.1209,-3.1254,-3.123,-3.1253,-3.1287,-3.1296,-3.1302,-3.1307,-3.1324,-3.133,-3.1256,-3.1256,-3.1256,0,-3.1393,-3.139,-3.1359,-3.1362,-3.1355,-3.1318,-3.1327,-3.1317,-3.1296,-3.1293,-3.1276,-3.1267,-3.1252,-3.1261,-3.1272,-3.1268,-3.127,-3.1255,-3.1304,-3.1308,-3.1313,-3.1328,-3.1334,-3.1259,-3.1259,-3.1258,-3.1258,0,-3.1434,-3.1433,-3.1442,-3.1423,-3.1418,-3.1424,-3.1395,-3.1394,-3.1374,-3.1356,-3.1361,-3.1342,-3.1332,-3.1333,-3.1313,-3.1339,-3.1331,-3.131,-3.1281,-3.1324,-3.1337,-3.1343,-3.1263,-3.1262,-3.1261,-3.126,0,0,-3.151,-3.1475,-3.1479,-3.147,-3.1446,-3.1445,-3.145,-3.144,-3.144,-3.1428,-3.1431,-3.1427,-3.1407,-3.14,-3.1379,-3.1387,-3.1425,-3.1365,-3.1364,-3.1377,-3.1453,-3.1469,-3.1476,-3.1409,-3.141,-3.1411,-3.1455,0,-3.1552,-3.1558,-3.1531,-3.1544,-3.1543,-3.1509,-3.1514,-3.15,-3.1484,-3.1481,-3.1464,-3.1461,-3.1435,-3.1431,-3.1437,-3.1419,-3.144,-3.1415,-3.1413,-3.1414,-3.1418,-3.1483,-3.15,-3.1542,-3.146,-3.1461,-3.1461,0,-3.1601,-3.1591,-3.1605,-3.1581,-3.158,-3.1584,-3.1574,-3.1572,-3.1556,-3.1544,-3.1537,-3.1513,-3.1518,-3.1491,-3.1497,-3.1481,-3.1479,-3.147,-3.1471,-3.1469,-3.144,-3.1484,-3.1554,-3.1561,-3.147,-3.1469,-3.1468,0,-3.1656,-3.1646,-3.1653,-3.1647,-3.162,-3.1624,-3.1613,-3.1596,-3.1592,-3.1583,-3.1581,-3.1573,-3.1568,-3.1563,-3.1539,-3.1521,-3.1548,-3.1519,-3.1539,-3.1539,-3.1545,-3.1545,-3.1617,-3.1545,-3.1544,-3.1544,-3.1544,0,-3.1705,-3.1715,-3.1677,-3.1682,-3.1692,-3.1662,-3.1673,-3.1659,-3.1645,-3.1646,-3.1616,-3.1619,-3.1586,-3.1585,-3.1566,-3.1575,-3.1573,-3.1564,-3.1559,-3.1566,-3.1568,-3.1564,-3.156,-3.1546,-3.1546,-3.1545,-3.1545,0,-3.1767,-3.1743,-3.1748,-3.1722,-3.1716,-3.1725,-3.1703,-3.1707,-3.1689,-3.1692,-3.1691,-3.1664,-3.1661,-3.1636,-3.1628,-3.1616,-3.1632,-3.1621,-3.1637,-3.1633,-3.1655,-3.1653,-3.1726,-3.1735,-3.1657,-3.1658,-3.1659,0,-3.18,-3.1807,-3.1782,-3.1781,-3.1771,-3.177,-3.1766,-3.1737,-3.1735,-3.1719,-3.1724,-3.1719,-3.1714,-3.1712,-3.1692,-3.1686,-3.1675,-3.1701,-3.1674,-3.1682,-3.1676,-3.1676,-3.1677,-3.1707,-3.1708,-3.1709,-3.1709,0,-3.1862,-3.1849,-3.1845,-3.1836,-3.1832,-3.1824,-3.1815,-3.1816,-3.1784,-3.1783,-3.178,-3.1776,-3.1768,-3.1764,-3.1755,-3.1745,-3.1722,-3.1718,-3.1723,-3.173,-3.1739,-3.1735,-3.1653,-3.1717,-3.1716,-3.1715,-3.1715,-3.1715,-3.191,-3.1915,-3.1899,-3.1895,-3.1885,-3.1877,-3.1879,-3.1862,-3.1859,-3.185,-3.1834,-3.1834,-3.182,-3.1805,-3.1797,-3.1797,-3.1783,-3.1789,-3.1791,-3.1793,-3.1797,-3.174,-3.1795,-3.1795,-3.1795,-3.1794,-3.1794,0,-3.197,-3.1958,-3.1955,-3.1943,-3.194,-3.1919,-3.1908,-3.1907,-3.1907,-3.1896,-3.1891,-3.1889,-3.1885,-3.1866,-3.186,-3.1864,-3.1854,-3.1863,-3.1863,-3.1861,-3.181,-3.1806,-3.1872,-3.1872,-3.1872,-3.1872,-3.1872,-3.1872,-3.2001,-3.2008,-3.1995,-3.1997,-3.1985,-3.1985,-3.198,-3.1973,-3.1964,-3.1962,-3.1959,-3.1946,-3.1932,-3.1925,-3.1921,-3.1915,-3.1915,-3.1928,-3.1919,-3.1872,-3.1864,-3.1857,-3.1854,-3.1928,-3.1928,-3.1971,-3.1971,-3.1971]},{"header":{"parameterUnit":"m.s-1","parameterCategory":1,"la1":30.2991,"la2":30.254,"lo1":-89.0895,"lo2":-89.0444,"dy":0.0017,"dx":0.0017,"nx":28,"ny":28,"refTime":"2024-03-07T03:00:00:Z","depth":0,"parameterNumber":3,"parameterNumberName":"V-component_of_WINDS"},"data":[0,0,0,0,0,0,0,0,0,0,0,0,0,0,0,0,0,0,0,0,0,0,0,0,0,0,0,0,0,0,0,0,0,0,0,0,0,0,0,0,0,0,0,0,0,0,0,0,0,0,0,0,0,0,0,0,0,0,2.2744,2.2744,0,2.2734,2.2734,2.2734,2.278,2.2781,2.2782,2.2784,2.2769,2.2767,2.2766,0,0,0,0,0,0,0,0,0,0,0,0,0,2.2796,2.2795,2.2744,2.2744,2.2743,2.2734,2.2734,2.2734,2.278,2.2781,2.2783,2.2784,2.2769,2.2767,2.2765,0,0,0,0,0,0,0,0,0,0,0,0,0,2.2779,2.2795,2.2744,2.2765,2.2767,2.2734,2.2734,2.2734,2.2779,2.2781,2.2783,2.2785,2.277,2.2768,2.2765,2.271,0,0,2.2758,2.2756,0,0,0,0,0,0,0,0,2.278,2.2777,2.2762,2.2764,2.2766,2.276,2.2747,2.2726,2.2779,2.2774,2.2784,2.2786,2.2764,2.2762,2.2756,2.2709,2.2708,2.2757,2.2756,2.2755,2.2754,0,0,0,0,0,0,0,2.2781,2.2777,2.274,2.2762,2.2764,2.2774,2.2774,2.2743,2.2758,2.2775,2.2778,2.2777,2.2765,2.2758,2.2756,2.2708,2.2757,2.2755,2.2754,2.2753,2.2616,2.2614,0,0,0,0,0,0,2.278,2.2778,2.274,2.274,2.2778,2.2771,2.2771,2.276,2.2758,2.276,2.2775,2.2779,2.2761,2.2759,2.2755,2.2692,2.2755,2.2752,2.2751,2.2618,2.2616,2.2613,0,0,0,0,0,0,2.2781,2.2776,2.2741,2.276,2.2756,2.2768,2.2756,2.2759,2.2752,2.2759,2.2761,2.2765,2.2763,2.2759,2.2721,2.2692,2.2751,2.2749,2.2621,2.2617,2.2614,2.2563,0,0,0,0,0,0,2.2782,2.2776,2.2756,2.2759,2.2755,2.2708,2.2754,2.2757,2.2748,2.2753,2.275,2.2751,2.2764,2.2725,2.2719,2.2689,2.2747,2.2623,2.2619,2.2615,2.2567,2.2558,2.255,0,0,0,0,0,2.2784,2.2741,2.2755,2.275,2.2731,2.2706,2.2703,2.272,2.2745,2.2725,2.2729,2.2752,2.2696,2.2721,2.2714,2.2683,2.2625,2.262,2.2616,2.2571,2.256,2.255,0,0,0,0,0,0,2.2732,2.2741,2.2758,2.2714,2.2709,2.2714,2.2689,2.2708,2.2694,2.2699,2.2719,2.2718,2.2677,2.2676,2.2704,2.263,2.2665,2.2658,2.2633,2.2622,2.2614,2.2615,2.2745,0,0,0,0,0,2.2716,2.2697,2.2705,2.2666,2.2663,2.2676,2.2666,2.268,2.2675,2.2672,2.2674,2.2667,2.2648,2.2635,2.2617,2.2567,2.2567,2.2542,2.2534,2.2527,2.2522,2.2496,2.2485,2.2597,2.2597,2.2598,0,0,2.2681,2.2684,2.2671,2.2656,2.2654,2.2632,2.2674,2.2649,2.2633,2.2668,2.2634,2.2634,2.2627,2.2583,2.2564,2.2581,2.2491,2.2521,2.2515,2.2514,2.249,2.2479,2.2469,2.2594,2.2595,2.2595,0,0,2.2609,2.2609,2.2577,2.2574,2.2571,2.258,2.2573,2.2575,2.2577,2.2543,2.2569,2.2549,2.2516,2.2511,2.2503,2.2429,2.2449,2.2422,2.2379,2.2353,2.2345,2.2337,2.2311,2.2302,2.2417,2.2417,2.2416,0,2.2566,2.2537,2.2557,2.2532,2.2525,2.2557,2.2524,2.252,2.251,2.2504,2.2524,2.2483,2.2481,2.2437,2.2419,2.2411,2.2403,2.2423,2.2344,2.2337,2.233,2.2306,2.2296,2.2413,2.2414,2.2414,2.2414,0,2.2485,2.2464,2.2439,2.2432,2.2421,2.2392,2.2407,2.2393,2.2407,2.2414,2.2379,2.2377,2.2361,2.2351,2.2364,2.2308,2.232,2.2341,2.2377,2.2316,2.2294,2.2284,2.2409,2.241,2.2411,2.2412,0,0,2.238,2.2385,2.2376,2.2373,2.2372,2.2356,2.2327,2.2313,2.2302,2.2294,2.2271,2.2242,2.2263,2.2254,2.2267,2.2244,2.2187,2.2269,2.2269,2.2255,2.2126,2.2111,2.21,2.22,2.2198,2.2197,2.2127,0,2.231,2.2265,2.2283,2.2235,2.2216,2.2246,2.2222,2.2218,2.2223,2.2206,2.2211,2.2191,2.222,2.2215,2.2194,2.2198,2.2161,2.2203,2.2178,2.2177,2.218,2.2088,2.2071,2.2006,2.2119,2.2117,2.2116,0,2.2222,2.2214,2.2165,2.2169,2.2161,2.2139,2.2128,2.2112,2.2108,2.2113,2.2105,2.2122,2.2093,2.2128,2.2089,2.2117,2.2107,2.2108,2.2105,2.2105,2.2144,2.2086,2.1986,2.1977,2.2102,2.2103,2.2104,0,2.2152,2.2128,2.2096,2.2093,2.2095,2.2079,2.2079,2.2077,2.2068,2.2057,2.2052,2.2037,2.2029,2.2016,2.2029,2.2053,2.1988,2.2023,2.1991,2.1991,2.1977,2.1978,2.1876,2.1969,2.1969,2.1969,2.1969,0,2.2073,2.2042,2.2065,2.2045,2.2011,2.2031,2.1997,2.2,2.1998,2.1979,2.2002,2.1983,2.2001,2.1983,2.1992,2.1959,2.1954,2.1957,2.196,2.1956,2.1956,2.1951,2.1956,2.1966,2.1967,2.1968,2.1968,0,2.1989,2.2003,2.1971,2.1977,2.1977,2.1952,2.1957,2.1938,2.1945,2.1921,2.1916,2.1926,2.1907,2.1918,2.1897,2.1903,2.186,2.1868,2.1862,2.1865,2.1833,2.1836,2.1724,2.1711,2.1812,2.1811,2.181,0,2.1939,2.1916,2.192,2.191,2.1909,2.1892,2.1884,2.1901,2.1891,2.1885,2.1867,2.185,2.1837,2.1804,2.1809,2.1793,2.1802,2.1764,2.18,2.1796,2.1803,2.1804,2.1803,2.1757,2.1756,2.1755,2.1754,0,2.1847,2.1856,2.1843,2.1833,2.1822,2.1815,2.1809,2.1798,2.1816,2.1803,2.1785,2.1775,2.1755,2.1737,2.1724,2.1722,2.1741,2.1743,2.1735,2.173,2.1728,2.173,2.1844,2.1745,2.1746,2.1747,2.1747,2.1748,2.1779,2.1761,2.1762,2.1747,2.1745,2.1739,2.1723,2.1729,2.1714,2.1701,2.1711,2.1689,2.1685,2.167,2.1666,2.1648,2.1663,2.1651,2.1648,2.1645,2.1641,2.173,2.1645,2.1645,2.1645,2.1646,2.1646,0,2.1691,2.1693,2.1679,2.1672,2.166,2.168,2.1674,2.1663,2.1644,2.1639,2.1627,2.1606,2.1589,2.1593,2.1577,2.1562,2.157,2.1558,2.1559,2.1559,2.1628,2.1637,2.1551,2.1551,2.1551,2.1551,2.1551,2.1551,2.1643,2.1614,2.1623,2.1592,2.1594,2.1575,2.157,2.1564,2.1561,2.1537,2.1524,2.1527,2.1526,2.1511,2.1496,2.1497,2.1491,2.1475,2.148,2.1544,2.1554,2.1563,2.1572,2.1473,2.1473,2.1412,2.1412,2.1411]}]]